Date String (YYYY-MM-DD hh:mm:ss) UTC,Instrument flags,Ambient pressure (hPa),Sample flow (lpm),Bypass flow (lpm),Sample temperature (°C),Ambient temperature (°C),ASC tube jacket temperature (°C),LED temperature (°C),Box temperature (°C),Sample RH (%),Span deviation,Mass concentration (μg/m³),Mass concentration (μg/m³),Mass concentration (μg/m³)
DateTimeUTC,F1_M11,P_M11,Q1_M11,Q2_M11,T1_M11,T2_M11,T3_M11,T4_M11,T5_M11,U1_M11,ZSPAN_M11,X2_M11,X0_M11,X1_M11
2022-07-20 14:00:00,,0830.4,5.00,0.00,29.7,28.1,00.0,38.5,31.6,22.9,0000.0,0008.60,0025.97,0006.56
2022-07-20 14:01:00,,0830.4,4.99,0.00,29.7,28.2,00.0,38.5,31.6,22.4,0000.0,0008.57,0025.21,0006.56
2022-07-20 14:02:00,,0830.5,5.01,0.00,29.8,28.3,00.0,38.5,31.7,21.9,0000.0,0008.58,0024.33,0006.58
2022-07-20 14:03:00,,0830.5,4.99,0.00,29.8,28.4,00.0,38.5,31.7,21.6,0000.0,0008.61,0025.36,0006.60
2022-07-20 14:04:00,,0830.5,4.99,0.00,29.8,28.5,00.0,38.6,31.7,21.6,0000.0,0008.58,0023.32,0006.62
2022-07-20 14:05:00,,0830.5,5.01,0.00,29.8,28.6,00.0,38.6,31.8,21.7,0000.6,0008.54,0021.54,0006.63
2022-07-20 14:06:00,,0830.6,4.99,0.00,29.8,28.7,00.0,38.6,31.8,22.3,0000.0,0008.54,0021.79,0006.64
2022-07-20 14:07:00,,0830.6,5.01,0.00,29.9,28.8,00.0,38.6,31.9,21.5,0000.0,0008.54,0022.30,0006.65
2022-07-20 14:08:00,,0830.6,4.99,0.00,29.9,28.7,00.0,38.6,31.9,21.3,0000.0,0008.47,0021.90,0006.65
2022-07-20 14:09:00,,0830.6,5.00,0.00,29.9,28.1,00.0,38.5,31.8,20.6,0000.0,0008.39,0021.78,0006.64
2022-07-20 14:10:00,,0830.6,5.01,0.00,29.9,27.5,00.0,38.5,31.7,20.3,0000.0,0008.36,0023.56,0006.63
2022-07-20 14:11:00,,0830.6,5.00,0.00,29.8,27.4,00.0,38.5,31.6,20.1,0000.0,0008.29,0023.76,0006.62
2022-07-20 14:12:00,,0830.6,5.00,0.00,29.8,27.5,00.0,38.5,31.5,20.1,0000.9,0008.22,0023.40,0006.62
2022-07-20 14:13:00,,0830.5,5.00,0.00,29.7,27.6,00.0,38.5,31.5,19.3,0000.3,0008.21,0023.18,0006.61
2022-07-20 14:14:00,,0830.5,5.01,0.00,29.7,27.8,00.0,38.5,31.5,19.1,0000.6,0008.12,0021.76,0006.60
2022-07-20 14:15:00,,0830.5,4.99,0.00,29.7,27.9,00.0,38.5,31.5,19.1,0000.0,0008.07,0021.77,0006.60
2022-07-20 14:16:00,,0830.5,5.01,0.00,29.7,28.1,00.0,38.5,31.6,19.1,0001.0,0008.04,0022.42,0006.59
2022-07-20 14:17:00,,0830.6,4.99,0.00,29.7,28.2,00.0,38.5,31.6,19.4,0000.0,0007.98,0022.25,0006.56
2022-07-20 14:18:00,,0830.6,5.01,0.00,29.7,28.3,00.0,38.5,31.6,19.5,0000.9,0007.94,0021.21,0006.55
2022-07-20 14:19:00,,0830.5,4.99,0.00,29.7,28.4,00.0,38.5,31.7,19.2,0000.0,0007.95,0021.16,0006.55
2022-07-20 14:20:00,,0830.5,5.01,0.00,29.8,28.5,00.0,38.5,31.7,19.1,0000.0,0008.00,0019.98,0006.55
2022-07-20 14:21:00,,0830.5,5.00,0.00,29.8,28.6,00.0,38.5,31.8,19.2,0000.0,0007.98,0018.30,0006.56
2022-07-20 14:22:00,,0830.5,4.99,0.00,29.8,28.7,00.0,38.6,31.8,19.4,0000.0,0007.98,0017.72,0006.57
2022-07-20 14:23:00,,0830.5,5.01,0.00,29.9,28.8,00.0,38.6,31.8,19.5,0000.0,0007.99,0017.81,0006.58
2022-07-20 14:24:00,,0830.5,4.99,0.00,29.9,28.7,00.0,38.6,31.9,19.6,0000.0,0007.97,0018.15,0006.59
2022-07-20 14:25:00,,0830.5,5.00,0.00,29.9,28.1,00.0,38.5,31.8,19.4,0000.0,0007.99,0018.64,0006.60
2022-07-20 14:26:00,,0830.5,5.01,0.00,29.9,27.5,00.0,38.5,31.7,19.7,0000.0,0008.04,0017.98,0006.61
2022-07-20 14:27:00,,0830.5,4.99,0.00,29.8,27.4,00.0,38.4,31.6,19.5,0000.0,0008.12,0017.66,0006.63
2022-07-20 14:28:00,,0830.5,5.00,0.00,29.7,27.4,00.0,38.5,31.5,19.6,0000.0,0008.20,0019.13,0006.64
2022-07-20 14:29:00,,0830.5,5.00,0.00,29.7,27.5,00.0,38.4,31.5,19.6,0000.0,0008.21,0019.62,0006.64
2022-07-20 14:30:00,,0830.5,4.99,0.00,29.7,27.7,00.0,38.4,31.5,19.9,0000.0,0008.17,0019.83,0006.64
2022-07-20 14:31:00,,0830.5,5.00,0.00,29.7,27.9,00.0,38.4,31.5,20.0,0000.0,0008.17,0020.00,0006.64
2022-07-20 14:32:00,,0830.5,5.01,0.00,29.7,28.0,00.0,38.4,31.5,20.3,0000.0,0008.14,0019.34,0006.62
2022-07-20 14:33:00,,0830.5,4.99,0.00,29.7,28.1,00.0,38.5,31.6,20.2,0000.0,0008.15,0019.49,0006.61
2022-07-20 14:34:00,,0830.6,5.01,0.00,29.7,28.3,00.0,38.5,31.6,20.1,0000.0,0008.15,0018.98,0006.59
2022-07-20 14:35:00,,0830.6,5.00,0.00,29.7,28.4,00.0,38.5,31.6,20.3,0000.0,0008.16,0018.75,0006.59
2022-07-20 14:36:00,,0830.6,5.01,0.00,29.7,28.5,00.0,38.5,31.7,20.4,0000.0,0008.19,0019.17,0006.58
2022-07-20 14:37:00,,0830.6,5.00,0.00,29.8,28.6,00.0,38.5,31.7,20.5,0000.5,0008.15,0019.90,0006.58
2022-07-20 14:38:00,,0830.6,4.99,0.00,29.8,28.7,00.0,38.5,31.7,20.2,0002.8,0008.10,0020.48,0006.59
2022-07-20 14:39:00,,0830.6,5.00,0.00,29.8,28.7,00.0,38.5,31.8,19.9,0003.3,0008.00,0019.09,0006.58
2022-07-20 14:40:00,,0830.6,5.00,0.00,29.8,28.4,00.0,38.5,31.8,19.8,0000.2,0007.99,0020.07,0006.59
2022-07-20 14:41:00,,0830.6,5.00,0.00,29.8,27.7,00.0,38.4,31.7,19.9,0000.0,0008.02,0019.99,0006.60
2022-07-20 14:42:00,,0830.6,4.99,0.00,29.8,27.4,00.0,38.4,31.6,19.6,0002.1,0008.09,0020.84,0006.62
2022-07-20 14:43:00,,0830.6,5.00,0.00,29.7,27.5,00.0,38.4,31.5,19.4,0003.6,0008.11,0022.80,0006.62
2022-07-20 14:44:00,,0830.6,5.00,0.00,29.7,27.6,00.0,38.4,31.4,19.4,0003.5,0008.07,0023.81,0006.62
2022-07-20 14:45:00,,0830.6,5.01,0.00,29.7,27.7,00.0,38.4,31.5,19.3,0003.4,0008.03,0024.26,0006.62
2022-07-20 14:46:00,,0830.6,5.01,0.00,29.7,27.9,00.0,38.4,31.5,19.6,0003.3,0008.03,0025.01,0006.62
2022-07-20 14:47:00,,0830.6,4.99,0.00,29.7,28.0,00.0,38.4,31.5,19.3,0003.3,0008.00,0025.41,0006.62
2022-07-20 14:48:00,,0830.6,5.00,0.00,29.7,28.1,00.0,38.4,31.6,19.2,0003.4,0007.98,0025.94,0006.61
2022-07-20 14:49:00,,0830.6,4.99,0.00,29.7,28.3,00.0,38.4,31.6,19.2,0003.5,0007.99,0025.11,0006.61
2022-07-20 14:50:00,,0830.6,4.99,0.00,29.7,28.4,00.0,38.4,31.6,19.1,0003.6,0008.04,0024.66,0006.61
2022-07-20 14:51:00,,0830.6,5.01,0.00,29.7,28.5,00.0,38.5,31.7,19.1,0003.5,0008.00,0023.02,0006.59
2022-07-20 14:52:00,,0830.6,4.99,0.00,29.8,28.6,00.0,38.5,31.7,19.1,0003.6,0007.99,0022.78,0006.60
2022-07-20 14:53:00,,0830.6,5.01,0.00,29.8,28.7,00.0,38.5,31.8,18.9,0003.7,0007.88,0022.00,0006.60
2022-07-20 14:54:00,,0830.7,4.99,0.00,29.8,28.7,00.0,38.5,31.8,18.8,0000.4,0007.88,0021.55,0006.61
2022-07-20 14:55:00,,0830.6,5.00,0.00,29.8,28.4,00.0,38.5,31.8,18.7,0002.4,0007.93,0020.25,0006.64
2022-07-20 14:56:00,,0830.6,4.99,0.00,29.8,27.7,00.0,38.4,31.7,18.9,0003.9,0007.92,0020.87,0006.67
2022-07-20 14:57:00,,0830.6,5.00,0.00,29.8,27.4,00.0,38.4,31.6,18.8,0000.9,0007.90,0019.67,0006.71
2022-07-20 14:58:00,,0830.6,5.00,0.00,29.7,27.4,00.0,38.4,31.5,18.9,0002.7,0007.93,0018.86,0006.75
2022-07-20 14:59:00,,0830.6,5.00,0.00,29.7,27.5,00.0,38.4,31.4,19.1,0003.7,0007.98,0017.70,0006.77
